Change the Weather History Date:

Thursday, April 24, 2014

  Actual Average Record
Temperature  
Mean Temperature 55 °F 54 °F  
Max Temperature 62 °F 67 °F 90 °F (1926)
Min Temperature 48 °F 42 °F 27 °F (1964)
Degree Days  
Heating Degree Days 10 11  
Month to date heating degree days 201 307  
Since 1 July heating degree days 3992 3939  
Cooling Degree Days 0 0  
Month to date cooling degree days 0 0  
Year to date cooling degree days 0 0  
Growing Degree Days 4 (Base 50)    
Moisture  
Dew Point 45 °F    
Average Humidity 74    
Maximum Humidity 93    
Minimum Humidity 54    
Precipitation  
Precipitation 0.09 in 0.04 in 0.47 in (1934)
Month to date precipitation 0.67 1.12  
Year to date precipitation 9.50 7.27  
Snow  
Snow 0.00 in 0.00 in - ()
Month to date snowfall 0.0 0.1  
Since 1 July snowfall 3.4 4.2  
Snow Depth 0.00 in    
Sea Level Pressure  
Sea Level Pressure 29.92 in    
Wind  
Wind Speed 7 mph (NW)    
Max Wind Speed 21 mph    
Max Gust Speed 27 mph    
Visibility 10 miles    
Events Rain , Thunderstorm    
T = Trace of Precipitation, MM = Missing Value Source: NWS Daily Summary

Daily Weather History Graph

Daily Weather History Graph

Search for Another Location

Airport or City:

Trip Planner

Search our weather history database for the weather conditions in past years. The results will help you decide how hot, cold, wet, or windy it might be!

Date:

Astronomy

Apr. 24, 2014 Rise Set
Actual Time 6:16 AM PDT 8:03 PM PDT
Civil Twilight 5:46 AM PDT 8:33 PM PDT
Nautical Twilight 5:10 AM PDT 9:10 PM PDT
Astronomical Twilight 4:30 AM PDT 9:49 PM PDT
Moon 3:37 AM PDT (4/24) 3:19 PM PDT (4/24)
Length of Visible Light 14h 47m
Length of Day
13h 47m
Waning Crescent, 23% of the Moon is Illuminated
Apr 24
Waning Crescent
Apr 28
New
May 6
First Quarter
May 14
Full
May 21
Last Quarter

Hourly Weather History & Observations

Time (PDT) Temp. Dew Point Humidity Pressure Visibility Wind Dir Wind Speed Gust Speed Precip Events Conditions
12:53 AM 51.1 °F 48.0 °F 89% 29.94 in 10.0 mi Calm Calm - N/A   Overcast
1:53 AM 52.0 °F 48.0 °F 86% 29.92 in 10.0 mi Calm Calm - N/A   Overcast
2:53 AM 51.1 °F 48.0 °F 89% 29.90 in 10.0 mi Calm Calm - N/A   Overcast
3:53 AM 50.0 °F 48.0 °F 93% 29.90 in 10.0 mi NW 3.5 mph - N/A   Mostly Cloudy
4:53 AM 50.0 °F 46.9 °F 89% 29.94 in 10.0 mi NW 9.2 mph - 0.00 in Rain Light Rain
5:53 AM 48.9 °F 46.0 °F 90% 29.91 in 10.0 mi Calm Calm - 0.03 in   Mostly Cloudy
6:53 AM 48.9 °F 46.9 °F 93% 29.91 in 10.0 mi Calm Calm - 0.00 in Rain Light Rain
7:53 AM 50.0 °F 48.0 °F 93% 29.92 in 10.0 mi North 4.6 mph - 0.00 in   Overcast
8:53 AM 51.1 °F 48.9 °F 92% 29.94 in 10.0 mi NNW 4.6 mph - 0.00 in Rain Light Rain
9:53 AM 54.0 °F 48.0 °F 80% 29.94 in 10.0 mi NNE 4.6 mph - 0.00 in   Overcast
10:53 AM 55.0 °F 48.0 °F 77% 29.94 in 10.0 mi NNW 6.9 mph - 0.00 in Rain Light Rain
11:53 AM 55.0 °F 51.1 °F 86% 29.95 in 5.0 mi NNE 8.1 mph - 0.02 in Rain Rain
12:53 PM 59.0 °F 48.9 °F 69% 29.93 in 10.0 mi NNE 6.9 mph - 0.00 in Rain Light Rain
1:53 PM 61.0 °F 48.9 °F 64% 29.91 in 10.0 mi ENE 8.1 mph - 0.01 in   Mostly Cloudy
2:53 PM 61.0 °F 45.0 °F 56% 29.90 in 10.0 mi NW 17.3 mph - N/A   Mostly Cloudy
3:53 PM 57.0 °F 46.9 °F 69% 29.91 in 10.0 mi WSW 16.1 mph 25.3 mph 0.00 in Rain , Thunderstorm Light Rain
4:00 PM 55.0 °F 45.0 °F 69% 29.92 in 10.0 mi WSW 16.1 mph 26.5 mph 0.00 in Rain , Thunderstorm Light Rain
4:16 PM 54.0 °F 48.0 °F 80% 29.93 in 7.0 mi West 11.5 mph - 0.02 in Rain Rain
4:53 PM 55.0 °F 46.9 °F 74% 29.93 in 10.0 mi WNW 11.5 mph - 0.03 in   Mostly Cloudy
5:53 PM 55.9 °F 45.0 °F 67% 29.93 in 10.0 mi NW 9.2 mph - N/A   Mostly Cloudy
6:53 PM 54.0 °F 41.0 °F 62% 29.91 in 10.0 mi NW 13.8 mph - N/A   Mostly Cloudy
7:53 PM 52.0 °F 39.9 °F 63% 29.91 in 10.0 mi WNW 10.4 mph - N/A   Mostly Cloudy
8:53 PM 51.1 °F 37.9 °F 61% 29.92 in 10.0 mi WNW 5.8 mph - N/A   Mostly Cloudy
9:53 PM 51.1 °F 36.0 °F 56% 29.92 in 10.0 mi NNW 5.8 mph - N/A   Overcast
10:53 PM 50.0 °F 37.0 °F 61% 29.92 in 10.0 mi NNW 6.9 mph - N/A   Overcast
11:53 PM 48.9 °F 36.0 °F 61% 29.91 in 10.0 mi NW 8.1 mph - N/A   Overcast